Orbital Elements at Epoch 2459200.5 (2020-Dec-17.0) TDB
Reference: JPL 28 (heliocentric ecliptic J2000)
Element | Value | Uncertainty (1-sigma) | Units |
e | .3802684075876276 | 3.953e-08 | |
a | 2.900424076978451 | 1.5148e-08 | au |
q | 1.797484431897041 | 1.1269e-07 | au |
i | 25.20348916261825 | 4.3523e-06 | deg |
node | 297.6710081497488 | 1.5734e-05 | deg |
peri | 341.8892510779083 | 2.0744e-05 | deg |
M | 143.4490547973168 | 1.6282e-05 | deg |
tp | 2458481.571220026979 (2018-Dec-29.07122003) | 7.9236e-05 | TDB |
period | 1804.224929581959 4.94 | 1.4134e-05 3.87e-08 | d yr |
n | .1995316626532882 | 1.5632e-09 | deg/d |
Q | 4.003363722059862 | 2.0908e-08 | au |
|
| | Orbit Determination Parameters
Additional Information
|